Regional Weather Roundup
Issued by NWS

Home | Current Version | Previous Version | Graphics & Text | Print | Product List | Glossary On
Versions: 1 2 3 4 5 6 7 8 9 10 11 12 13 14 15 16 17 18 19 20 21 22 23 24 25 26 27 28 29 30 31 32 33 34 35 36 37 38 39 40 41 42 43 44 45 46 47 48 49 50
000
ASUS43 KMKX 270620
RWRWI

WISCONSIN REGIONAL WEATHER ROUNDUP
NATIONAL WEATHER SERVICE MILWAUKEE/SULLIVAN WI
100 AM CDT FRI APR 27 2018

NOTE: "FAIR" INDICATES FEW OR NO CLOUDS BELOW 12,000 FEET WITH NO
SIGNIFICANT WEATHER AND/OR OBSTRUCTIONS TO VISIBILITY.

WIZ001-002-006>008-014>016-023>028-270700-
NORTHWEST WISCONSIN

CITY           SKY/WX    TMP DP  RH WIND       PRES   REMARKS
SUPERIOR ARPT  FAIR      30  29  94 CALM      29.86F
6HR MIN TEMP:  29; 6HR MAX TEMP:  55;

ASHLAND        FAIR      28  27  96 CALM      29.88F
6HR MIN TEMP:  27; 6HR MAX TEMP:  50;

HAYWARD        FAIR      29  25  85 N3        29.88F
6HR MIN TEMP:  29; 6HR MAX TEMP:  54;

SIREN          FAIR      35  24  63 CALM      29.87F
6HR MIN TEMP:  35; 6HR MAX TEMP:  58;

CUMBERLAND     FAIR      37  23  56 CALM      29.88F
RICE LAKE      FAIR      33  29  86 CALM      29.89F
6HR MIN TEMP:  34; 6HR MAX TEMP:  57;

CHETEK         FAIR      33  31  91 CALM      29.89F
6HR MIN TEMP:  33; 6HR MAX TEMP:  55;

LADYSMITH      FAIR      32  30  92 CALM      29.90S
6HR MIN TEMP:  33; 6HR MAX TEMP:  53;

EAU CLAIRE     FAIR      39  33  79 CALM      29.89S
6HR MIN TEMP:  36; 6HR MAX TEMP:  62;

MENOMONIE      FAIR      42  29  59 W3        29.89F
6HR MIN TEMP:  42; 6HR MAX TEMP:  61;

NEW RICHMOND   FAIR      40  24  53 CALM      29.90F
6HR MIN TEMP:  38; 6HR MAX TEMP:  58;

OSCEOLA        FAIR      34  26  73 CALM      29.93F
6HR MIN TEMP:  34; 6HR MAX TEMP:  58;

$$

WIZ003>005-009-010-017-018-270700-
NORTH CENTRAL WISCONSIN

CITY           SKY/WX    TMP DP  RH WIND       PRES   REMARKS
MANITOWISH WTR FAIR      26  26 100 CALM      29.86S
6HR MIN TEMP:  26; 6HR MAX TEMP:  45;

ARBOR VITAE    FAIR      30  28  95 CALM      29.86S
6HR MIN TEMP:  30; 6HR MAX TEMP:  42;

WOODRUFF       FAIR      30  28  95 CALM      29.86S
6HR MIN TEMP:  30; 6HR MAX TEMP:  42;

RHINELANDER    FAIR      29  28  96 W3        29.86F FOG
6HR MIN TEMP:  29; 6HR MAX TEMP:  45;

EAGLE RIVER    FAIR      28  28 100 CALM      29.86S FOG
6HR MIN TEMP:  28; 6HR MAX TEMP:  42;

LAND O LAKES   FAIR      26  25  98 CALM      29.87F
6HR MIN TEMP:  26; 6HR MAX TEMP:  42;

PHILLIPS       FAIR      27  25  94 CALM      29.87F
6HR MIN TEMP:  27; 6HR MAX TEMP:  47;

TOMAHAWK       FAIR      26  25  95 CALM      29.88S
6HR MIN TEMP:  26; 6HR MAX TEMP:  46;

MEDFORD        FAIR      32  30  94 CALM      29.87S
6HR MIN TEMP:  31; 6HR MAX TEMP:  51;

MERRILL        FAIR      30  30  99 CALM      29.88S
6HR MIN TEMP:  30; 6HR MAX TEMP:  51;

$$

WIZ029-030-035-036-043>047-270700-
CENTRAL WISCONSIN

CITY           SKY/WX    TMP DP  RH WIND       PRES   REMARKS
WAUSAU         FAIR      38  33  82 NW6       29.85F WCI  33
6HR MIN TEMP:  38; 6HR MAX TEMP:  57; 6HR PCP: TRACE;

MOSINEE        FAIR      36  32  87 N3        29.88S
MARSHFIELD     FAIR      39  33  79 NE6       29.86F WCI  35
6HR MIN TEMP:  39; 6HR MAX TEMP:  59;

STEVENS POINT  FAIR      36  31  84 CALM      29.87F
6HR MIN TEMP:  36; 6HR MAX TEMP:  62;

WAUPACA        MOCLDY    46  35  66 N5        29.87R
6HR MIN TEMP:  46; 6HR MAX TEMP:  67;

WAUTOMA        CLOUDY    45  34  65 N9        29.87R
6HR MIN TEMP:  45; 6HR MAX TEMP:  66;

WISC RAPIDS    FAIR      41  30  65 N6        29.88S
6HR MIN TEMP:  41; 6HR MAX TEMP:  65; 6HR PCP: TRACE;

CAMP DOUGLAS   FAIR      42  33  69 NW3       29.88R
6HR MIN TEMP:  42; 6HR MAX TEMP:  64;

$$

WIZ011>013-019>022-031-037>040-048>050-270700-
NORTHEAST WISCONSIN

CITY           SKY/WX    TMP DP  RH WIND       PRES   REMARKS
ANTIGO         FAIR      32  32  99 CALM      29.86S
6HR MIN TEMP:  32; 6HR MAX TEMP:  52;

SHAWANO        FAIR      42  35  75 N7        29.87S
6HR MIN TEMP:  42; 6HR MAX TEMP:  66;

OCONTO         CLOUDY    39  35  83 N5        29.86R
6HR MIN TEMP:  39; 6HR MAX TEMP:  62;

STURGEON BAY   LGT RAIN  38  34  85 N12       29.86R WCI  30
6HR MIN TEMP:  38; 6HR MAX TEMP:  50; 6HR PCP: TRACE;

GREEN BAY      CLOUDY    41  36  82 N12       29.85R
6HR MIN TEMP:  41; 6HR MAX TEMP:  63; 6HR PCP:  0.02;

MANITOWOC      MOCLDY    43  34  70 N12       29.82S
6HR MIN TEMP:  42; 6HR MAX TEMP:  49; 6HR PCP: TRACE;

APPLETON       CLOUDY    43  32  65 NE8       29.83R
CLINTONVILLE   FAIR      43  34  71 N6        29.86F
6HR MIN TEMP:  44; 6HR MAX TEMP:  65;

OSHKOSH        CLOUDY    45  36  70 N13       29.84R
6HR MIN TEMP:  45; 6HR MAX TEMP:  65; 6HR PCP: TRACE;

$$

WIZ032>034-041-042-053>061-270700-
SOUTHWEST WISCONSIN

CITY           SKY/WX    TMP DP  RH WIND       PRES   REMARKS
LA CROSSE      FAIR      50  34  54 N6        29.89S
6HR MIN TEMP:  50; 6HR MAX TEMP:  65;

SPARTA         FAIR      39  32  77 CALM      29.90S
6HR MIN TEMP:  39; 6HR MAX TEMP:  65;

VIROQUA        FAIR      43  35  73 NE6       29.89R
6HR MIN TEMP:  43; 6HR MAX TEMP:  63;

BOSCOBEL       FAIR      52  35  52 N8        29.88R
6HR MIN TEMP:  52; 6HR MAX TEMP:  69;

PRAIRIE DU CHI FAIR      54  32  43 N8        29.87R
6HR MIN TEMP:  52; 6HR MAX TEMP:  67;

PLATTEVILLE    FAIR      50  39  64 N14       29.85R
6HR MIN TEMP:  49; 6HR MAX TEMP:  67;

$$

WIZ056-057-062-063-064-067-068-270700-
SOUTH CENTRAL WISCONSIN

CITY           SKY/WX    TMP DP  RH WIND       PRES   REMARKS
REEDSBURG      FAIR      45  31  58 N7        29.87S
6HR MIN TEMP:  47; 6HR MAX TEMP:  66;

BARABOO/DELLS  CLOUDY    48  31  52 N8        29.86R
6HR MIN TEMP:  48; 6HR MAX TEMP:  66;

LONE ROCK      MOCLDY    50  31  48 N14       29.87R
6HR MIN TEMP:  50; 6HR MAX TEMP:  67;

MINERAL POINT  FAIR      52  32  46 N20G28    29.85R
MADISON        MOCLDY    50  36  58 N13       29.83R
6HR MIN TEMP:  49; 6HR MAX TEMP:  66;

MIDDLETON      CLOUDY    51  35  54 N14G23    29.84R
6HR MIN TEMP:  50; 6HR MAX TEMP:  68;

WATERTOWN      MOCLDY    49  36  60 N14       29.80R
6HR MIN TEMP:  48; 6HR MAX TEMP:  64;

MONROE         FAIR      52  34  50 N14G23    29.80R
JANESVILLE     FAIR      52  36  54 NW10      29.78R
$$

WIZ051-052-058>065-066-070>072-270700-
SOUTHEAST WISCONSIN

CITY           SKY/WX    TMP DP  RH WIND       PRES   REMARKS
MILWAUKEE      FAIR      52  31  44 NW6       29.75S
6HR MIN TEMP:  50; 6HR MAX TEMP:  58;

WAUKESHA       MOCLDY    50  34  53 NW13      29.78R
MILWAUKEE/TIMM FAIR      50  32  50 NW14      29.77S
RACINE         FAIR      48  31  51 SW6       29.75F
6HR MIN TEMP:  46; 6HR MAX TEMP:  53;

BURLINGTON     FAIR      47  33  58 CALM      29.75S
6HR MIN TEMP:  46; 6HR MAX TEMP:  65;

KENOSHA        MOCLDY    52  31  44 S8        29.74F
6HR MIN TEMP:  48; 6HR MAX TEMP:  58;

FOND DU LAC    LGT RAIN  45  35  68 N18       29.83R
6HR MIN TEMP:  45; 6HR MAX TEMP:  64; 6HR PCP: TRACE;

SHEBOYGAN      MOCLDY    43  36  76 NE16      29.80R
6HR MIN TEMP:  42; 6HR MAX TEMP:  54;

WEST BEND      MOCLDY    45  32  61 NE9G18    29.80R
JUNEAU         CLOUDY    47  35  63 N15G21    29.82R
6HR MIN TEMP:  47; 6HR MAX TEMP:  63;

$$

LSZ147-162-270700-
LAKE SUPERIOR

STATION/POSITION TIME  TEMP    WIND        PRES    WAVE
                       AIR SEA DIR/SP/G            HT/PER
                 (UTC) (F)     (DEG/KT/KT) (MB)    (FT/S)
DEVILS ISLAND    0600   41     200/  2/  2 1011.9F
SAXON HARBOR     0530   31     200/  3/  4 1011.5F
$$

LMZ867-665-643>646-270700-
LAKE MICHIGAN

STATION/POSITION TIME  TEMP    WIND        PRES    W


USA.gov is the U.S. government's official web portal to all federal, state and local government web resources and services.